Flag for France Weather past 2 weeks in Bordeaux, France

Now
63 °F

Clear.


Feels Like: 63 °F
Forecast: 56 / 91 °F
Wind: 2 mph from Northwest

Location: Bordeaux / Merignac

Current Time: Aug 2, 2015 at 12:46:16 AM

Latest Report: Aug 2, 2015 at 12:00 AM


Visibility: 10 mi

Pressure: 30.07 "Hg

Humidity: 59%

Dew point: 48 °F

Location of BordeauxLocation

Historic Weather in Bordeaux — Graph

°F

Bordeaux temperature yesterday

Maximum temperature yesterday: 79 °F (at 2:00 PM)
Minimum temperature yesterday: 57 °F (at 2:30 AM)
Average temperature yesterday: 68 °F

Past Weeks' High & Low Weather Summary

 TemperatureHumidityPressure
High95 °F (Jul 18, 6:00 PM)100% (Jul 29, 2:30 AM)30.15 "Hg (Jul 29, 2:30 AM)
Low54 °F (Jul 26, 4:00 AM)14% (Jul 26, 2:30 PM)29.83 "Hg (Jul 24, 3:00 PM)
Average70 °F65%30.00 "Hg
* Reported Jul 17 11:00 PM — Aug 1 11:00 PM, Bordeaux, Weather by CustomWeather, © 2015

Note: Actual official high and low records may vary slightly from our data, if they occured in-between our weather recording intervals... More about our weather records

Advertising

Bordeaux weather history for previous 24 hours

 ConditionsComfort  
Time TempWeatherWind HumidityBarometerVisibility
11:00 PM
Sat, Aug 1
64 °FClear.5 mph56%30.09 "Hg10 mi
10:30 PM66 °FClear.5 mph49%30.07 "Hg10 mi
10:00 PM68 °FSunny.3 mph46%30.07 "Hg10 mi
9:30 PM70 °FPassing clouds.6 mph43%30.07 "HgN/A
9:00 PM72 °FSunny.7 mph41%30.04 "Hg10 mi
8:30 PM73 °FSunny.9 mph41%30.04 "Hg10 mi
8:00 PM75 °FSunny.12 mph39%30.04 "Hg10 mi
7:30 PM75 °FSunny.13 mph39%30.04 "Hg10 mi
7:00 PM77 °FPassing clouds.14 mph39%30.04 "HgN/A
6:30 PM77 °FPassing clouds.9 mph39%30.04 "HgN/A
6:00 PM77 °FSunny.10 mph36%30.04 "Hg10 mi
5:00 PM77 °FPassing clouds.6 mph36%30.04 "HgN/A
4:30 PM79 °FPassing clouds.9 mph37%30.04 "HgN/A
4:00 PM77 °FPassing clouds.8 mph39%30.04 "HgN/A
3:30 PM77 °FPassing clouds.10 mph34%30.04 "HgN/A
3:00 PM77 °FSunny.3 mph34%30.04 "Hg10 mi
2:30 PM77 °FPassing clouds.7 mph32%30.04 "HgN/A
2:00 PM79 °FPassing clouds.6 mph34%30.04 "HgN/A
1:30 PM77 °FSunny.6 mph36%30.04 "Hg10 mi
1:00 PM77 °FPassing clouds.9 mph32%30.04 "HgN/A
12:30 PM75 °FPassing clouds.12 mph36%30.04 "HgN/A
12:00 PM75 °FPassing clouds.10 mph36%30.04 "HgN/A
11:30 AM73 °FPassing clouds.9 mph41%30.04 "HgN/A
11:00 AM70 °FPassing clouds.5 mph60%30.01 "HgN/A
10:30 AM68 °FPassing clouds.5 mph60%30.01 "HgN/A
10:00 AM66 °FPassing clouds.6 mph68%30.01 "HgN/A
9:30 AM64 °FSunny.8 mph73%30.01 "Hg10 mi
9:00 AM63 °FPassing clouds.8 mph77%30.01 "HgN/A
8:30 AM63 °FPassing clouds.7 mph77%29.98 "HgN/A
8:00 AM63 °FSunny.6 mph77%29.98 "Hg10 mi
7:30 AM61 °FClear.6 mph83%29.98 "Hg10 mi
6:30 AM61 °FClear.7 mph83%29.95 "Hg10 mi
6:00 AM61 °FClear.7 mph83%29.95 "Hg10 mi
5:30 AM61 °FClear.8 mph83%29.95 "Hg10 mi
5:00 AM61 °FClear.7 mph83%29.95 "Hg10 mi
4:30 AM61 °FClear.6 mph83%29.95 "Hg10 mi
4:00 AM59 °FClear.3 mph88%29.95 "Hg10 mi
3:30 AM59 °FClear.6 mph88%29.92 "Hg10 mi
3:00 AM57 °FClear.6 mph88%29.95 "Hg10 mi
2:30 AM57 °FClear.5 mph88%29.95 "Hg10 mi
2:00 AM59 °FClear.6 mph77%29.95 "Hg10 mi
1:30 AM59 °FClear.6 mph77%29.95 "Hg10 mi
1:00 AM59 °FClear.5 mph77%29.95 "Hg10 mi
12:30 AM61 °FClear.5 mph68%29.95 "Hg10 mi
Weather by CustomWeather, © 2015

See weather overviewHow to use our weather pages